THOR BURNER 2 R/B, 2422

Orbit data source: Space-Track

THOR BURNER 2 R/B, 2422 is space debris in SSO originally from a launch on Fri, 16 Sep 1966 UTC launched from the Air Force Western Test Range (AFWTR). Debris objects in space refer to the collection of defunct objects orbiting the Earth. Examples of debris include non-operational satellites, rocket bodies, and fragments generated from explosions, collisions, or faulty payload assembly.

Loading next visibility...
Identifier
2422, 1966-082B
Orbit
SSO
Country
Flag of USUS
Related business
Manufacturer
Thiokol/TE
Mission
Spacecraft
Bus & Motor
STAR 37, Unknown motor
Mass
136 kg wet, 136 kg dry
Launch date (UTC)
1966-09-16 (60 years ago)
Launch vehicle
Unknown
Launch site
Air Force Western Test Range (AFWTR)
Object type
Payload
Rocket body
Debris
Shape & HBR
FRUST, 1.1 m
Radar Cross Section
Large (>1 m²)

Expand to show TLE details & history
Last TLE update: 9 hours ago

TLE from 9 hours ago
0 THOR BURNER 2 R/B
1 02422U 66082B   26257.13159319  .00000190  00000-0  61212-4 0  9992
2 02422  98.2566  49.5839 0108782 296.2089  62.7952 14.46822834128136
Epoch: 2026-09-14T03:09Z
TLE epoch observation values (Epoch: 2026-09-14T03:09:29.651Z)
Latitude
-0.00004°
Longitude
9.09407°
Altitude
704.294 km
Speed
7.522 km/s
True Right ascension
03h 18m 20s
True Declination
0° 00' 00"
Sunlit
Object was in full shadow at epoch
Visualization orbit readout
Latitude
Unknown
Longitude
Unknown
Altitude
Unknown
Speed
Unknown
Apparent Right ascension
Unknown
Apparent Declination
Unknown
Sunlit
N/A
Visualization observer readout
Local Sidereal Time
04:20:49
Azimuth
Unknown
Elevation
Unknown
Doppler factor
Unknown
Orbital elements
Apogee altitude
810.503 km
Perigee altitude
655.787 km
Semi-major axis
7,111.282 km
Eccentricity
0.01088
Inclination
98.2566°
RAAN
49.5839°
Arg. of periapsis
296.2089°
True anomaly
63.91072°
Mean anomaly
62.7952°
Eccentric anomaly
63.35227°
Mean motion
3.61927 °/min
Orbital period
99.47 mins
BSTAR
0.000061212
Loading maneuver chart data...
Computing Atmospheric mass density...
Loading historical data...
Loading historical data...
Loading historical data...
Loading historical data...
Loading historical data...
Loading historical data...
Loading historical data...
Other satellites on launch #82 in the year 1966 (1966-09-16 UTC)

Documentation

Showing up to 5 results
|